Theta_e
332 330 328 327 325 325 326 325 324 324 324 323 322 323 323 326 327 327 329 330 331 333 335 340 343 346 347 348 347 347 347 347 348 345 346 346 348 349 349 350 349 347 349
329 327 326 325 325 325 324 323 323 323 323 323 323 323 323 324 324 324 325 325 326 326 327 329 333 337 341 343 343 345 346 348 347 348 348 349 348 349 350 350 348 348 349
327 325 324 324 324 323 323 323 322 322 322 321 322 322 322 323 324 324 324 325 327 328 327 328 327 328 333 339 343 342 342 346 347 347 347 348 348 345 342 340 343 347 349
325 324 323 323 322 322 322 322 321 320 319 319 320 321 321 322 321 321 321 323 323 324 326 326 327 327 327 331 337 341 343 343 344 345 345 345 343 345 344 345 345 347 348
323 323 323 323 322 321 320 320 319 318 317 317 318 319 318 319 317 317 318 320 321 321 323 324 327 329 328 330 333 336 339 340 342 344 345 344 343 343 344 343 348 346 346
323 322 322 322 321 319 318 317 316 315 315 315 315 315 315 315 314 314 316 317 317 318 320 320 323 327 326 328 329 331 332 334 337 341 342 344 342 342 341 342 340 341 343
321 321 321 320 319 316 316 316 314 313 313 313 312 312 313 313 311 312 314 315 315 316 316 317 319 321 322 319 321 325 331 331 332 335 338 340 343 342 342 341 340 342 342
321 320 319 318 317 317 316 314 313 312 311 311 311 311 311 309 308 308 312 314 314 315 315 314 314 315 316 316 318 322 326 328 331 332 332 334 338 342 344 341 341 342 342
320 319 318 316 316 317 315 314 314 312 312 311 311 310 311 310 307 308 311 312 313 314 314 314 315 315 314 316 318 320 321 325 327 327 328 328 330 332 334 339 342 341 341
320 320 319 317 315 314 315 315 315 315 313 312 312 311 308 310 306 307 309 310 311 312 314 314 314 312 313 314 316 317 318 321 323 325 327 329 330 334 333 334 338 342 340
320 321 320 318 317 316 316 315 316 316 316 316 316 314 311 308 309 306 307 309 310 310 311 312 313 310 310 311 313 314 315 317 320 324 328 329 330 330 332 334 336 338 341
318 319 319 319 317 316 316 317 316 316 316 316 316 315 314 312 309 308 306 306 307 309 309 309 310 310 310 309 310 309 311 313 314 315 317 323 326 329 330 331 333 335 336
318 317 317 315 316 314 316 317 316 316 315 314 313 313 313 313 312 310 310 309 307 309 309 308 308 309 309 309 308 307 308 308 308 309 310 312 314 319 324 329 332 333 335
317 318 317 317 315 314 315 315 315 314 313 312 311 311 312 312 312 311 310 310 310 310 308 309 308 308 308 309 309 308 307 307 306 306 307 307 310 314 315 319 324 330 331
318 316 316 315 314 313 312 312 312 313 311 310 311 311 311 311 310 309 309 309 308 308 308 309 309 309 309 309 308 308 307 306 306 305 306 306 305 307 310 312 315 322 329
315 314 313 313 312 313 312 313 311 310 310 309 308 307 309 308 308 307 307 308 308 308 309 309 309 310 310 310 310 309 309 308 308 306 304 304 305 305 305 309 311 315 320
315 313 313 312 312 312 313 313 313 312 313 313 311 310 308 308 307 308 307 308 308 308 310 308 308 308 309 309 309 309 309 309 309 308 307 304 302 302 304 305 307 310 313
313 311 315 315 315 315 315 315 313 313 315 315 314 313 311 310 310 308 308 308 311 310 310 310 309 308 307 306 306 306 307 307 307 307 306 304 304 302 302 303 304 307 308
315 316 317 317 316 316 316 316 314 315 316 316 315 314 313 311 311 312 308 309 309 310 310 309 309 308 308 307 306 306 306 306 307 307 305 304 303 303 304 302 300 304 308
319 317 317 318 316 318 317 316 317 317 317 317 316 316 315 314 314 314 313 309 308 308 311 310 310 308 308 307 306 306 306 306 305 304 304 303 303 302 302 304 301 301 307
318 318 317 317 316 317 317 317 317 317 318 317 316 316 314 313 314 314 314 313 311 310 311 311 308 307 307 307 307 307 306 306 304 304 304 302 302 302 301 302 303 302 304
318 318 317 317 316 316 316 316 316 316 316 317 316 316 314 313 315 315 315 314 313 312 312 309 308 307 307 305 305 306 306 305 303 303 302 301 300 300 301 301 302 303 306
319 318 317 317 316 315 315 315 315 316 317 315 313 312 311 313 315 315 314 314 313 312 311 309 308 308 306 304 305 305 303 302 301 300 299 299 299 299 299 300 301 302 303
318 318 317 317 316 315 315 315 317 315 312 312 311 310 311 313 314 314 312 310 310 310 309 307 306 302 302 302 301 301 300 297 296 297 297 297 298 298 299 300 300 301 302
316 317 317 317 316 315 316 317 314 312 311 309 308 309 310 310 309 307 305 304 303 303 302 301 301 300 299 299 299 298 296 295 295 296 295 295 296 297 298 299 299 300 301
317 318 317 316 316 316 316 313 312 310 308 307 308 307 305 304 303 302 301 300 300 299 299 298 298 298 298 298 298 297 296 296 296 295 295 293 295 297 297 297 298 299 300
Wind_Speed
17 20 17 14 11 8 9 10 10 9 9 11 12 11 11 10 11 10 11 10 11 11 11 11 11 10 10 11 12 15 18 20 11 19 17 17 18 16 17 15 17 19 15
16 16 16 13 11 9 9 9 8 10 12 10 10 11 10 10 12 13 13 13 13 14 14 14 14 13 12 12 13 15 16 16 18 16 20 18 18 13 13 13 16 18 22
15 15 14 12 10 9 9 10 10 8 9 11 12 13 13 12 13 14 14 14 13 12 12 13 16 15 15 13 13 14 16 17 19 17 19 15 16 14 19 22 23 21 21
13 14 13 11 10 9 9 9 9 10 10 12 14 12 10 10 12 15 16 15 16 15 14 14 13 14 15 15 15 15 15 16 16 18 15 14 13 12 12 12 15 27 19
13 11 9 7 7 8 10 12 12 13 14 12 10 10 11 11 16 18 17 16 16 16 15 16 15 15 12 12 14 14 15 17 15 18 15 14 13 11 11 12 17 18 20
8 7 7 8 10 11 12 12 14 13 13 13 14 14 15 15 20 19 19 15 14 14 16 17 17 13 17 14 14 14 14 14 17 18 20 20 20 16 13 12 12 13 10
8 8 8 9 10 12 12 12 12 12 12 14 15 16 17 17 23 23 22 16 16 16 15 15 16 15 17 20 20 18 15 14 14 17 19 20 21 18 15 13 13 14 16
8 9 9 9 10 9 10 10 10 11 13 15 18 18 18 20 26 27 22 19 18 17 17 15 16 17 18 23 22 19 17 16 15 13 13 17 21 17 15 16 15 14 16
9 10 8 6 5 6 7 8 9 11 13 13 13 15 16 19 27 29 22 19 20 19 18 17 18 21 24 24 22 17 19 19 17 17 19 19 18 19 20 17 17 16 15
6 5 5 5 7 7 8 7 8 7 7 8 9 11 14 15 22 26 24 20 20 20 19 18 19 24 24 22 21 21 19 20 22 23 21 19 17 17 17 16 19 19 18
5 5 4 4 5 5 5 5 5 5 6 7 7 7 8 13 15 22 24 19 19 19 19 19 19 24 25 23 20 20 20 22 19 18 19 19 17 16 17 15 15 22 23
7 6 4 4 4 3 3 3 5 6 7 8 9 9 8 7 11 15 18 21 21 17 19 19 18 22 23 25 23 24 22 21 23 22 21 18 18 16 17 17 17 17 23
7 6 3 1 1 3 4 5 6 7 9 9 9 10 10 9 8 11 14 17 18 16 17 19 21 20 20 19 24 26 25 27 25 22 20 20 22 21 20 18 18 18 18
6 3 1 1 3 3 4 5 6 8 9 9 10 11 11 12 10 10 12 13 15 16 19 16 17 17 17 17 19 20 20 21 22 18 21 23 20 19 21 22 22 19 17
3 1 1 1 2 2 3 3 4 5 6 8 9 9 10 13 13 14 14 13 15 17 17 15 16 17 18 19 19 18 18 19 20 19 20 22 25 23 20 23 23 24 16
3 3 1 0 1 2 3 5 8 10 12 11 10 10 11 12 12 11 12 15 15 16 13 16 17 16 17 18 18 19 18 18 18 18 18 18 20 23 24 22 21 21 18
5 4 3 2 4 5 5 5 8 13 16 14 9 10 12 13 12 11 11 11 11 11 12 15 15 16 17 18 18 18 19 19 18 19 19 18 18 17 19 20 21 18 20
6 5 3 4 5 6 6 5 6 8 11 11 11 11 11 11 13 14 12 12 10 9 11 11 12 14 15 16 17 18 19 19 19 19 20 19 18 17 17 18 19 18 19
3 2 4 6 6 5 3 4 5 7 10 12 13 12 11 13 16 15 14 10 10 11 10 9 9 10 11 13 15 17 18 18 17 19 20 19 19 17 17 15 19 21 21
3 5 7 8 7 5 5 5 8 12 14 14 15 14 14 13 13 12 11 14 13 13 12 13 10 9 11 12 14 15 18 19 19 20 20 21 20 19 19 17 16 17 17
7 8 9 9 8 7 8 10 13 15 16 17 17 18 17 15 15 14 13 12 11 12 14 12 11 11 14 16 17 17 18 20 21 20 21 22 21 20 19 18 17 17 17
9 9 8 9 9 9 11 13 14 14 16 16 15 15 16 12 14 14 12 11 10 12 11 13 13 15 15 13 17 18 20 22 22 22 22 22 21 20 19 18 18 17 15
8 9 10 10 11 12 13 13 13 12 10 10 15 17 18 16 14 11 12 12 13 13 10 8 12 14 14 16 15 17 20 21 20 21 22 22 21 20 19 19 17 17 15
9 11 13 13 12 12 12 11 9 5 9 12 15 16 15 14 13 13 12 12 12 11 10 10 10 13 15 15 17 18 18 18 22 19 19 20 20 20 19 19 18 17 17
10 11 11 11 9 7 5 4 6 8 11 13 15 13 12 12 12 12 12 13 13 13 14 13 14 16 17 19 18 17 22 26 24 24 19 17 18 18 18 17 17 17 17
11 10 8 5 2 2 2 4 6 9 12 12 10 10 11 11 12 12 13 14 15 15 16 15 16 17 18 16 16 25 24 25 25 23 22 16 16 16 16 17 17 17 17
Wind_Direction
99 95 93 86 75 63 51 42 34 21 15 16 12 5 1 0 357 351 344 339 334 326 322 319 311 307 274 259 250 249 247 237 244 259 258 266 263 261 268 267 264 257 257
96 90 81 76 72 61 54 48 40 30 21 20 18 17 18 12 4 359 353 344 337 330 320 316 308 307 300 288 265 253 250 251 243 254 265 259 262 259 267 271 274 273 267
75 70 69 63 62 60 53 40 34 28 18 19 22 23 19 13 4 1 356 349 341 336 330 319 308 303 296 295 293 276 261 258 253 251 264 266 259 265 264 268 285 279 263
73 67 65 62 57 47 43 38 29 24 21 22 23 20 17 17 7 0 352 343 341 338 342 335 325 309 299 295 300 289 282 273 255 245 250 253 264 267 264 260 256 259 263
54 58 65 68 61 50 43 36 31 28 31 26 27 24 20 19 7 0 348 338 332 334 340 342 338 330 316 307 302 304 295 290 274 248 248 251 255 251 244 244 239 251 257
99 100 99 80 62 50 51 57 54 54 54 52 46 39 35 26 13 5 357 347 342 341 337 337 338 342 346 347 330 315 302 295 293 289 268 251 257 249 255 246 256 257 256
95 89 77 76 75 73 70 59 54 51 54 50 45 40 36 26 22 11 5 6 5 353 345 343 342 340 345 343 330 328 322 313 296 288 289 279 268 260 258 258 256 255 257
106 94 83 76 73 75 66 65 62 55 53 49 43 40 36 26 25 19 17 14 10 4 359 353 350 347 350 346 334 323 313 306 306 301 297 287 286 277 263 258 262 264 263
86 73 71 74 91 93 83 74 58 51 47 43 40 38 34 28 26 21 21 13 9 8 4 2 359 352 346 349 345 325 322 312 309 305 304 298 293 288 272 266 254 245 254
128 123 114 103 96 94 77 56 40 31 28 30 32 32 29 27 26 26 25 15 12 9 10 5 0 358 359 0 356 352 337 328 320 311 304 301 293 290 291 261 251 249 248
137 127 120 112 96 69 50 35 11 354 357 357 355 359 18 20 21 26 25 21 14 11 9 5 3 12 13 10 8 360 349 344 340 328 315 305 296 287 281 271 253 246 250
124 136 137 114 78 44 20 354 343 339 335 339 344 348 347 354 5 14 20 21 20 14 12 11 5 12 16 19 21 20 11 2 358 354 349 342 338 326 305 291 270 260 249
150 147 126 77 345 323 325 324 339 340 346 352 348 348 351 343 338 346 359 6 10 10 360 1 7 10 12 13 13 18 18 19 16 3 350 341 336 326 325 307 286 270 258
158 162 245 295 321 317 303 313 331 345 353 0 1 3 355 358 350 345 345 348 350 354 348 347 353 359 4 4 6 10 12 14 13 7 354 352 344 340 338 337 334 299 270
150 196 248 308 342 1 5 336 329 330 338 334 338 335 334 345 351 337 330 332 334 335 343 346 348 351 351 355 356 359 360 3 6 3 354 356 353 352 345 340 336 327 296
179 190 211 312 345 339 337 337 337 342 331 322 311 312 313 316 328 332 331 336 337 334 343 350 349 347 346 346 343 343 348 349 350 350 355 355 349 345 345 348 345 334 327
182 213 229 269 285 294 308 321 327 333 341 344 325 299 304 308 303 314 315 326 343 351 349 354 351 350 346 344 343 338 334 336 334 338 340 340 341 340 346 346 340 338 331
193 220 261 291 298 305 309 303 305 317 324 332 334 330 297 301 306 292 298 305 317 332 340 345 349 351 350 348 346 343 337 333 332 332 333 335 335 331 336 333 335 334 330
183 257 289 306 311 317 313 306 301 302 307 312 316 320 316 311 313 309 284 277 285 300 311 318 328 334 338 341 341 341 340 336 331 329 330 332 331 328 322 323 328 328 331
269 286 295 293 304 292 301 310 312 311 308 304 303 306 308 305 298 303 283 279 280 280 279 291 300 313 321 324 329 333 335 336 332 330 328 326 325 324 320 318 317 320 325
269 278 282 280 290 308 299 297 303 303 308 313 307 309 307 297 288 291 296 297 284 287 280 274 295 309 314 314 316 320 325 326 326 323 322 322 320 317 318 315 311 309 309
263 272 277 274 284 294 299 301 303 307 312 317 317 324 328 320 307 301 301 308 311 308 297 283 284 295 305 300 307 311 316 318 320 319 316 315 313 312 312 311 308 304 305
261 274 280 284 290 294 304 306 309 315 325 333 333 333 336 333 328 325 326 326 327 327 321 300 306 311 313 318 307 308 312 315 316 315 311 310 308 307 308 308 304 300 300
272 279 285 293 298 305 308 312 321 343 343 341 339 339 344 348 349 349 350 352 351 354 355 344 330 328 330 321 316 314 313 310 316 313 308 304 302 303 302 303 303 298 294
281 289 294 300 304 314 332 355 352 350 346 345 342 346 354 2 8 7 2 358 354 349 343 338 332 328 326 323 321 319 314 318 317 314 312 303 300 300 297 296 299 300 297
290 294 294 299 326 57 43 12 355 351 348 350 356 359 359 358 357 356 353 350 346 341 338 335 332 333 331 331 328 326 327 328 326 320 316 306 300 302 305 302 300 298 295